Home > Weather > Reutte > Past weeks

Flag for Austria Past Weather in Reutte, Tyrol, Austria — Yesterday and Last 2 Weeks

Now
46 °F

Cool.


Feels Like: 43 °F
Forecast: 35 / 69 °F
Wind: 5 mph from South

Location: Landeck

Current Time: May 24, 2016 at 10:12:57 AM

Latest Report: May 24, 2016 at 9:00 AM


Visibility: N/A

Pressure: 29.98 "Hg (27.01 "Hg at 856m altitude)

Humidity: 83%

Dew Point: 40 °F

Location of ReutteLocation

Past Weather in Reutte — Graph

°F

Reutte Temperature Yesterday

Maximum temperature yesterday: 63 °F (at 12:00 AM)
Minimum temperature yesterday: 42 °F (at 10:00 PM)
Average temperature yesterday: 50 °F

High & Low Weather Summary for the Past Weeks

 TemperatureHumidityPressure
High81 °F (May 22, 3:00 PM)94% (May 14, 3:00 AM)30.24 "Hg (May 14, 3:00 AM)
Low40 °F (May 17, 4:00 AM)20% (May 21, 4:00 PM)29.44 "Hg (May 12, 10:00 AM)
Average54 °F65%29.87 "Hg
* Reported May 9 7:00 AM — May 24 7:00 AM, Reutte, Weather by CustomWeather, © 2016

Note: Actual official high and low records may vary slightly from our data, if they occured in-between our weather recording intervals... More about our weather records

Advertising

Reutte Weather History for the Previous 24 Hours

Scroll right to see more
 ConditionsComfort  
Time TempWeatherWind HumidityBarometerVisibility
7:00 AM
Tue, May 24
43 °FQuite cool.2 mph88%29.99 "HgN/A
6:00 AM43 °FQuite cool.1 mph88%29.99 "HgN/A
5:00 AM43 °FQuite cool.3 mph87%29.98 "HgN/A
4:00 AM43 °FQuite cool.3 mph86%29.98 "HgN/A
3:00 AM42 °FQuite cool.2 mph88%29.99 "HgN/A
2:00 AM42 °FQuite cool.2 mph89%30.00 "HgN/A
1:00 AM42 °FQuite cool.1 mph88%30.01 "HgN/A
12:00 AM42 °FSprinkles. Overcast.3 mph87%30.01 "HgN/A
11:00 PM
Mon, May 23
42 °FQuite cool.2 mph87%30.02 "HgN/A
10:00 PM42 °FQuite cool.3 mph86%30.03 "HgN/A
9:00 PM43 °FQuite cool.3 mph86%30.02 "HgN/A
8:00 PM43 °FQuite cool.2 mph87%30.01 "HgN/A
7:00 PM44 °FFog.3 mph85%30.00 "HgN/A
6:00 PM45 °FSprinkles. Cloudy.2 mph81%29.97 "HgN/A
5:00 PM45 °FCool.1 mph81%29.97 "HgN/A
4:00 PM46 °FCool.1 mph80%29.95 "HgN/A
3:00 PM46 °FFog.2 mph83%29.95 "HgN/A
2:00 PM46 °FPassing clouds.14 mph78%29.93 "Hg5 mi
1:00 PM45 °FFog.1 mph82%29.91 "HgN/A
12:00 PM48 °FFog.5 mph74%29.86 "HgN/A
10:00 AM56 °FFog.1 mph74%29.78 "HgN/A
Weather by CustomWeather, © 2016

See weather overviewHow to use our weather pages